Location: Newark
(57.7279°N, 5.6916°W)
Time: 02:30:17
(UTC+00:00)

N. Korean satellite - Pass Details

Date: 07 December 2019
Orbit: 454 x 507 km, 97.2° (Epoch: 28 January)

Event Time Altitude Azimuth Distance (km) Brightness Sun altitude
Rises 07:47:17 0° 7° (N) 2,592 10.0 -7.4°
Reaches altitude 10° 07:49:43 10° 352° (N) 1,694 8.9 -7.2°
Maximum altitude 07:52:31 21° 301° (WNW) 1,134 7.8 -6.9°
Drops below altitude 10° 07:55:16 10° 251° (WSW) 1,660 8.9 -6.5°
Sets 07:57:38 0° 235° (SW) 2,524 10.0 -6.3°
